Year,Month,Day,Hour,Minute,Value (Times are PST for temperature in C)
2019,05,04,00,00,10.40
2019,05,04,00,01,10.40
2019,05,04,00,02,10.40
2019,05,04,00,03,10.40
2019,05,04,00,04,10.40
2019,05,04,00,05,10.40
2019,05,04,00,06,10.40
2019,05,04,00,07,10.40
2019,05,04,00,08,10.40
2019,05,04,00,09,10.40
2019,05,04,00,10,10.40
2019,05,04,00,11,10.40
2019,05,04,00,12,10.40
2019,05,04,00,13,10.40
2019,05,04,00,14,10.40
2019,05,04,00,15,10.40
2019,05,04,00,16,10.40
2019,05,04,00,17,10.40
2019,05,04,00,18,10.40
2019,05,04,00,19,10.30
2019,05,04,00,20,10.30
2019,05,04,00,21,10.30
2019,05,04,00,22,10.30
2019,05,04,00,23,10.30
2019,05,04,00,24,10.30
2019,05,04,00,25,10.30
2019,05,04,00,26,10.30
2019,05,04,00,27,10.40
2019,05,04,00,28,10.40
2019,05,04,00,29,10.40
2019,05,04,00,30,10.40
2019,05,04,00,31,10.40
2019,05,04,00,32,10.40
2019,05,04,00,33,10.40
2019,05,04,00,34,10.40
2019,05,04,00,35,10.50
2019,05,04,00,36,10.60
2019,05,04,00,37,10.60
2019,05,04,00,38,10.60
2019,05,04,00,39,10.60
2019,05,04,00,40,10.60
2019,05,04,00,41,10.60
2019,05,04,00,42,10.60
2019,05,04,00,43,10.60
2019,05,04,00,44,10.60
2019,05,04,00,45,10.60
2019,05,04,00,46,10.60
2019,05,04,00,47,10.60
2019,05,04,00,48,10.60
2019,05,04,00,49,10.60
2019,05,04,00,50,10.60
2019,05,04,00,51,10.60
2019,05,04,00,52,10.60
2019,05,04,00,53,10.60
2019,05,04,00,54,10.60
2019,05,04,00,55,10.60
2019,05,04,00,56,10.60
2019,05,04,00,57,10.60
2019,05,04,00,58,10.60
2019,05,04,00,59,10.60
2019,05,04,01,00,10.60
2019,05,04,01,01,10.60
2019,05,04,01,02,10.60
2019,05,04,01,03,10.60
2019,05,04,01,04,10.50
2019,05,04,01,05,10.40
2019,05,04,01,06,10.40
2019,05,04,01,07,10.40
2019,05,04,01,08,10.40
2019,05,04,01,09,10.40
2019,05,04,01,10,10.40
2019,05,04,01,11,10.40
2019,05,04,01,12,10.40
2019,05,04,01,13,10.30
2019,05,04,01,14,10.30
2019,05,04,01,15,10.30
2019,05,04,01,16,10.30
2019,05,04,01,17,10.20
2019,05,04,01,18,10.20
2019,05,04,01,19,10.20
2019,05,04,01,20,10.20
2019,05,04,01,21,10.10
2019,05,04,01,22,10.10
2019,05,04,01,23,10.10
2019,05,04,01,24,10.10
2019,05,04,01,25,10.10
2019,05,04,01,26,10.10
2019,05,04,01,27,10.10
2019,05,04,01,28,10.10
2019,05,04,01,29,10.00
2019,05,04,01,30,9.90
2019,05,04,01,31,9.90
2019,05,04,01,32,9.90
2019,05,04,01,33,9.90
2019,05,04,01,34,9.90
2019,05,04,01,35,9.90
2019,05,04,01,36,9.90
2019,05,04,01,37,9.80
2019,05,04,01,38,9.80
2019,05,04,01,39,9.80
2019,05,04,01,40,9.80
2019,05,04,01,41,9.80
2019,05,04,01,42,9.70
2019,05,04,01,43,9.70
2019,05,04,01,44,9.70
2019,05,04,01,45,9.70
2019,05,04,01,46,9.70
2019,05,04,01,47,9.70
2019,05,04,01,48,9.70
2019,05,04,01,49,9.70
2019,05,04,01,50,9.70
2019,05,04,01,51,9.70
2019,05,04,01,52,9.70
2019,05,04,01,53,9.70
2019,05,04,01,54,9.60
2019,05,04,01,55,9.60
2019,05,04,01,56,9.60
2019,05,04,01,57,9.60
2019,05,04,01,58,9.60
2019,05,04,01,59,9.60
2019,05,04,02,00,9.50
2019,05,04,02,01,9.50
2019,05,04,02,02,9.50
2019,05,04,02,03,9.50
2019,05,04,02,04,9.50
2019,05,04,02,05,9.50
2019,05,04,02,06,9.50
2019,05,04,02,07,9.50
2019,05,04,02,08,9.40
2019,05,04,02,09,9.40
2019,05,04,02,10,9.40
2019,05,04,02,11,9.40
2019,05,04,02,12,9.30
2019,05,04,02,13,9.30
2019,05,04,02,14,9.30
2019,05,04,02,15,9.30
2019,05,04,02,16,9.20
2019,05,04,02,17,9.20
2019,05,04,02,18,9.20
2019,05,04,02,19,9.20
2019,05,04,02,20,9.20
2019,05,04,02,21,9.20
2019,05,04,02,22,9.20
2019,05,04,02,23,9.20
2019,05,04,02,24,9.20
2019,05,04,02,25,9.20
2019,05,04,02,26,9.20
2019,05,04,02,27,9.20
2019,05,04,02,28,9.20
2019,05,04,02,29,9.20
2019,05,04,02,30,9.20
2019,05,04,02,31,9.20
2019,05,04,02,32,9.10
2019,05,04,02,33,9.10
2019,05,04,02,34,9.10
2019,05,04,02,35,9.10
2019,05,04,02,36,9.10
2019,05,04,02,37,9.10
2019,05,04,02,38,9.10
2019,05,04,02,39,9.10
2019,05,04,02,40,9.10
2019,05,04,02,41,9.10
2019,05,04,02,42,9.10
2019,05,04,02,43,9.10
2019,05,04,02,44,9.10
2019,05,04,02,45,9.20
2019,05,04,02,46,9.20
2019,05,04,02,47,9.20
2019,05,04,02,48,9.20
2019,05,04,02,49,9.20
2019,05,04,02,50,9.20
2019,05,04,02,51,9.10
2019,05,04,02,52,9.10
2019,05,04,02,53,9.10
2019,05,04,02,54,9.10
2019,05,04,02,55,9.10
2019,05,04,02,56,9.10
2019,05,04,02,57,9.10
2019,05,04,02,58,9.10
2019,05,04,02,59,9.00
2019,05,04,03,00,9.00
2019,05,04,03,01,9.00
2019,05,04,03,02,9.00
2019,05,04,03,03,8.90
2019,05,04,03,04,8.90
2019,05,04,03,05,8.90
2019,05,04,03,06,8.80
2019,05,04,03,07,8.80
2019,05,04,03,08,8.80
2019,05,04,03,09,8.70
2019,05,04,03,10,8.70
2019,05,04,03,11,8.70
2019,05,04,03,12,8.70
2019,05,04,03,13,8.70
2019,05,04,03,14,8.70
2019,05,04,03,15,8.70
2019,05,04,03,16,8.70
2019,05,04,03,17,8.70
2019,05,04,03,18,8.70
2019,05,04,03,19,8.70
2019,05,04,03,20,8.70
2019,05,04,03,21,8.60
2019,05,04,03,22,8.70
2019,05,04,03,23,8.70
2019,05,04,03,24,8.70
2019,05,04,03,25,8.70
2019,05,04,03,26,8.70
2019,05,04,03,27,8.60
2019,05,04,03,28,8.60
2019,05,04,03,29,8.60
2019,05,04,03,30,8.60
2019,05,04,03,31,8.60
2019,05,04,03,32,8.60
2019,05,04,03,33,8.50
2019,05,04,03,34,8.50
2019,05,04,03,35,8.50
2019,05,04,03,36,8.40
2019,05,04,03,37,8.40
2019,05,04,03,38,8.40
2019,05,04,03,39,8.30
2019,05,04,03,40,8.30
2019,05,04,03,41,8.30
2019,05,04,03,42,8.20
2019,05,04,03,43,8.30
2019,05,04,03,44,8.30
2019,05,04,03,45,8.30
2019,05,04,03,46,8.30
2019,05,04,03,47,8.20
2019,05,04,03,48,8.20
2019,05,04,03,49,8.20
2019,05,04,03,50,8.20
2019,05,04,03,51,8.20
2019,05,04,03,52,8.20
2019,05,04,03,53,8.20
2019,05,04,03,54,8.20
2019,05,04,03,55,8.20
2019,05,04,03,56,8.20
2019,05,04,03,57,8.20
2019,05,04,03,58,8.10
2019,05,04,03,59,8.10
2019,05,04,04,00,8.00
2019,05,04,04,01,8.00
2019,05,04,04,02,8.00
2019,05,04,04,03,7.90
2019,05,04,04,04,7.90
2019,05,04,04,05,7.80
2019,05,04,04,06,7.80
2019,05,04,04,07,7.80
2019,05,04,04,08,7.80
2019,05,04,04,09,7.80
2019,05,04,04,10,7.80
2019,05,04,04,11,7.80
2019,05,04,04,12,7.80
2019,05,04,04,13,7.80
2019,05,04,04,14,7.80
2019,05,04,04,15,7.80
2019,05,04,04,16,7.80
2019,05,04,04,17,7.80
2019,05,04,04,18,7.80
2019,05,04,04,19,7.80
2019,05,04,04,20,7.80
2019,05,04,04,21,7.80
2019,05,04,04,22,7.80
2019,05,04,04,23,7.80
2019,05,04,04,24,7.80
2019,05,04,04,25,7.80
2019,05,04,04,26,7.80
2019,05,04,04,27,7.80
2019,05,04,04,28,7.80
2019,05,04,04,29,7.80
2019,05,04,04,30,7.80
2019,05,04,04,31,7.80
2019,05,04,04,32,7.80
2019,05,04,04,33,7.80
2019,05,04,04,34,7.80
2019,05,04,04,35,7.80
2019,05,04,04,36,7.90
2019,05,04,04,37,7.90
2019,05,04,04,38,7.90
2019,05,04,04,39,7.90
2019,05,04,04,40,7.90
2019,05,04,04,41,7.90
2019,05,04,04,42,7.90
2019,05,04,04,43,7.90
2019,05,04,04,44,7.90
2019,05,04,04,45,7.90
2019,05,04,04,46,7.90
2019,05,04,04,47,7.90
2019,05,04,04,48,8.00
2019,05,04,04,49,8.10
2019,05,04,04,50,8.10
2019,05,04,04,51,8.10
2019,05,04,04,52,8.10
2019,05,04,04,53,8.10
2019,05,04,04,54,8.10
2019,05,04,04,55,8.10
2019,05,04,04,56,8.10
2019,05,04,04,57,8.10
2019,05,04,04,58,8.10
2019,05,04,04,59,8.00
2019,05,04,05,00,8.00
2019,05,04,05,01,8.00
2019,05,04,05,02,7.90
2019,05,04,05,03,7.90
2019,05,04,05,04,7.90
2019,05,04,05,05,7.90
2019,05,04,05,06,7.90
2019,05,04,05,07,7.80
2019,05,04,05,08,7.90
2019,05,04,05,09,7.90
2019,05,04,05,10,7.90
2019,05,04,05,11,7.90
2019,05,04,05,12,7.90
2019,05,04,05,13,7.90
2019,05,04,05,14,7.90
2019,05,04,05,15,7.90
2019,05,04,05,16,7.90
2019,05,04,05,17,7.90
2019,05,04,05,18,7.90
2019,05,04,05,19,7.90
2019,05,04,05,20,7.90
2019,05,04,05,21,7.90
2019,05,04,05,22,7.90
2019,05,04,05,23,7.90
2019,05,04,05,24,7.90
2019,05,04,05,25,7.90
2019,05,04,05,26,7.80
2019,05,04,05,27,7.80
2019,05,04,05,28,7.80
2019,05,04,05,29,7.80
2019,05,04,05,30,7.80
2019,05,04,05,31,7.80
2019,05,04,05,32,7.70
2019,05,04,05,33,7.60
2019,05,04,05,34,7.60
2019,05,04,05,35,7.50
2019,05,04,05,36,7.50
2019,05,04,05,37,7.40
2019,05,04,05,38,7.40
2019,05,04,05,39,7.30
2019,05,04,05,40,7.30
2019,05,04,05,41,7.30
2019,05,04,05,42,7.30
2019,05,04,05,43,7.30
2019,05,04,05,44,7.30
2019,05,04,05,45,7.30
2019,05,04,05,46,7.30
2019,05,04,05,47,7.30
2019,05,04,05,48,7.30
2019,05,04,05,49,7.30
2019,05,04,05,50,7.30
2019,05,04,05,51,7.30
2019,05,04,05,52,7.30
2019,05,04,05,53,7.30
2019,05,04,05,54,7.30
2019,05,04,05,55,7.30
2019,05,04,05,56,7.30
2019,05,04,05,57,7.30
2019,05,04,05,58,7.40
2019,05,04,05,59,7.40
2019,05,04,06,00,7.40
2019,05,04,06,01,7.40
2019,05,04,06,02,7.40
2019,05,04,06,03,7.40
2019,05,04,06,04,7.40
2019,05,04,06,05,7.40
2019,05,04,06,06,7.40
2019,05,04,06,07,7.40
2019,05,04,06,08,7.40
2019,05,04,06,09,7.50
2019,05,04,06,10,7.50
2019,05,04,06,11,7.50
2019,05,04,06,12,7.60
2019,05,04,06,13,7.60
2019,05,04,06,14,7.60
2019,05,04,06,15,7.60
2019,05,04,06,16,7.60
2019,05,04,06,17,7.60
2019,05,04,06,18,7.60
2019,05,04,06,19,7.60
2019,05,04,06,20,7.60
2019,05,04,06,21,7.60
2019,05,04,06,22,7.60
2019,05,04,06,23,7.70
2019,05,04,06,24,7.70
2019,05,04,06,25,7.70
2019,05,04,06,26,7.70
2019,05,04,06,27,7.70
2019,05,04,06,28,7.70
2019,05,04,06,29,7.70
2019,05,04,06,30,7.70
2019,05,04,06,31,7.80
2019,05,04,06,32,7.80
2019,05,04,06,33,7.80
2019,05,04,06,34,7.90
2019,05,04,06,35,8.00
2019,05,04,06,36,8.00
2019,05,04,06,37,8.10
2019,05,04,06,38,8.10
2019,05,04,06,39,8.20
2019,05,04,06,40,8.20
2019,05,04,06,41,8.20
2019,05,04,06,42,8.20
2019,05,04,06,43,8.20
2019,05,04,06,44,8.30
2019,05,04,06,45,8.30
2019,05,04,06,46,8.30
2019,05,04,06,47,8.30
2019,05,04,06,48,8.30
2019,05,04,06,49,8.30
2019,05,04,06,50,8.30
2019,05,04,06,51,8.40
2019,05,04,06,52,8.40
2019,05,04,06,53,8.40
2019,05,04,06,54,8.50
2019,05,04,06,55,8.50
2019,05,04,06,56,8.50
2019,05,04,06,57,8.50
2019,05,04,06,58,8.50
2019,05,04,06,59,8.60
2019,05,04,07,00,8.60
2019,05,04,07,01,8.60
2019,05,04,07,02,8.60
2019,05,04,07,03,8.70
2019,05,04,07,04,8.70
2019,05,04,07,05,8.70
2019,05,04,07,06,8.70
2019,05,04,07,07,8.70
2019,05,04,07,08,8.70
2019,05,04,07,09,8.80
2019,05,04,07,10,8.80
2019,05,04,07,11,8.90
2019,05,04,07,12,8.90
2019,05,04,07,13,8.90
2019,05,04,07,14,8.90
2019,05,04,07,15,9.00
2019,05,04,07,16,9.00
2019,05,04,07,17,9.10
2019,05,04,07,18,9.20
2019,05,04,07,19,9.20
2019,05,04,07,20,9.20
2019,05,04,07,21,9.30
2019,05,04,07,22,9.30
2019,05,04,07,23,9.40
2019,05,04,07,24,9.40
2019,05,04,07,25,9.50
2019,05,04,07,26,9.50
2019,05,04,07,27,9.60
2019,05,04,07,28,9.70
2019,05,04,07,29,9.70
2019,05,04,07,30,9.70
2019,05,04,07,31,9.80
2019,05,04,07,32,9.80
2019,05,04,07,33,9.90
2019,05,04,07,34,10.00
2019,05,04,07,35,10.10
2019,05,04,07,36,10.10
2019,05,04,07,37,10.20
2019,05,04,07,38,10.20
2019,05,04,07,39,10.30
2019,05,04,07,40,10.40
2019,05,04,07,41,10.40
2019,05,04,07,42,10.40
2019,05,04,07,43,10.50
2019,05,04,07,44,10.60
2019,05,04,07,45,10.60
2019,05,04,07,46,10.60
2019,05,04,07,47,10.60
2019,05,04,07,48,10.60
2019,05,04,07,49,10.60
2019,05,04,07,50,10.70
2019,05,04,07,51,10.80
2019,05,04,07,52,10.90
2019,05,04,07,53,10.90
2019,05,04,07,54,10.90
2019,05,04,07,55,11.00
2019,05,04,07,56,11.10
2019,05,04,07,57,11.10
2019,05,04,07,58,11.20
2019,05,04,07,59,11.20
2019,05,04,08,00,11.20
2019,05,04,08,01,11.30
2019,05,04,08,02,11.30
2019,05,04,08,03,11.40
2019,05,04,08,04,11.40
2019,05,04,08,05,11.40
2019,05,04,08,06,11.40
2019,05,04,08,07,11.60
2019,05,04,08,08,11.60
2019,05,04,08,09,11.60
2019,05,04,08,10,11.60
2019,05,04,08,11,11.60
2019,05,04,08,12,11.60
2019,05,04,08,13,11.60
2019,05,04,08,14,11.60
2019,05,04,08,15,11.70
2019,05,04,08,16,11.60
2019,05,04,08,17,11.60
2019,05,04,08,18,11.60
2019,05,04,08,19,11.70
2019,05,04,08,20,11.70
2019,05,04,08,21,11.80
2019,05,04,08,22,11.80
2019,05,04,08,23,11.80
2019,05,04,08,24,11.80
2019,05,04,08,25,11.90
2019,05,04,08,26,11.90
2019,05,04,08,27,11.90
2019,05,04,08,28,11.90
2019,05,04,08,29,11.90
2019,05,04,08,30,11.90
2019,05,04,08,31,11.90
2019,05,04,08,32,12.00
2019,05,04,08,33,12.00
2019,05,04,08,34,12.10
2019,05,04,08,35,12.10
2019,05,04,08,36,12.10
2019,05,04,08,37,12.10
2019,05,04,08,38,12.10
2019,05,04,08,39,12.10
2019,05,04,08,40,12.10
2019,05,04,08,41,12.20
2019,05,04,08,42,12.30
2019,05,04,08,43,12.40
2019,05,04,08,44,12.40
2019,05,04,08,45,12.50
2019,05,04,08,46,12.50
2019,05,04,08,47,12.60
2019,05,04,08,48,12.60
2019,05,04,08,49,12.70
2019,05,04,08,50,12.70
2019,05,04,08,51,12.70
2019,05,04,08,52,12.80
2019,05,04,08,53,12.70
2019,05,04,08,54,12.60
2019,05,04,08,55,12.50
2019,05,04,08,56,12.50
2019,05,04,08,57,12.30
2019,05,04,08,58,12.30
2019,05,04,08,59,12.30
2019,05,04,09,00,12.30
2019,05,04,09,01,12.30
2019,05,04,09,02,12.40
2019,05,04,09,03,12.40
2019,05,04,09,04,12.50
2019,05,04,09,05,12.60
2019,05,04,09,06,12.60
2019,05,04,09,07,12.70
2019,05,04,09,08,12.70
2019,05,04,09,09,12.80
2019,05,04,09,10,12.80
2019,05,04,09,11,12.90
2019,05,04,09,12,13.00
2019,05,04,09,13,13.00
2019,05,04,09,14,13.00
2019,05,04,09,15,12.90
2019,05,04,09,16,12.90
2019,05,04,09,17,12.90
2019,05,04,09,18,12.80
2019,05,04,09,19,12.90
2019,05,04,09,20,12.90
2019,05,04,09,21,12.90
2019,05,04,09,22,12.90
2019,05,04,09,23,12.90
2019,05,04,09,24,12.90
2019,05,04,09,25,12.80
2019,05,04,09,26,12.80
2019,05,04,09,27,12.80
2019,05,04,09,28,12.70
2019,05,04,09,29,12.70
2019,05,04,09,30,12.80
2019,05,04,09,31,12.80
2019,05,04,09,32,12.70
2019,05,04,09,33,12.60
2019,05,04,09,34,12.60
2019,05,04,09,35,12.60
2019,05,04,09,36,12.50
2019,05,04,09,37,12.50
2019,05,04,09,38,12.40
2019,05,04,09,39,12.30
2019,05,04,09,40,12.30
2019,05,04,09,41,12.30
2019,05,04,09,42,12.20
2019,05,04,09,43,12.20
2019,05,04,09,44,12.30
2019,05,04,09,45,12.30
2019,05,04,09,46,12.30
2019,05,04,09,47,12.30
2019,05,04,09,48,12.40
2019,05,04,09,49,12.50
2019,05,04,09,50,12.60
2019,05,04,09,51,12.60
2019,05,04,09,52,12.50
2019,05,04,09,53,12.40
2019,05,04,09,54,12.30
2019,05,04,09,55,12.30
2019,05,04,09,56,12.30
2019,05,04,09,57,12.20
2019,05,04,09,58,12.20
2019,05,04,09,59,12.30
2019,05,04,10,00,12.30
2019,05,04,10,01,12.30
2019,05,04,10,02,12.50
2019,05,04,10,03,12.50
2019,05,04,10,04,12.60
2019,05,04,10,05,12.70
2019,05,04,10,06,12.70
2019,05,04,10,07,12.60
2019,05,04,10,08,12.60
2019,05,04,10,09,12.60
2019,05,04,10,10,12.60
2019,05,04,10,11,12.50
2019,05,04,10,12,12.40
2019,05,04,10,13,12.50
2019,05,04,10,14,12.60
2019,05,04,10,15,12.60
2019,05,04,10,16,12.70
2019,05,04,10,17,12.70
2019,05,04,10,18,12.80
2019,05,04,10,19,12.80
2019,05,04,10,20,12.80
2019,05,04,10,21,12.80
2019,05,04,10,22,12.80
2019,05,04,10,23,12.80
2019,05,04,10,24,13.00
2019,05,04,10,25,13.10
2019,05,04,10,26,13.20
2019,05,04,10,27,13.30
2019,05,04,10,28,13.30
2019,05,04,10,29,13.30
2019,05,04,10,30,13.20
2019,05,04,10,31,13.20
2019,05,04,10,32,13.10
2019,05,04,10,33,13.00
2019,05,04,10,34,12.90
2019,05,04,10,35,12.80
2019,05,04,10,36,12.70
2019,05,04,10,37,12.60
2019,05,04,10,38,12.50
2019,05,04,10,39,12.50
2019,05,04,10,40,12.50
2019,05,04,10,41,12.50
2019,05,04,10,42,12.50
2019,05,04,10,43,12.60
2019,05,04,10,44,12.60
2019,05,04,10,45,12.60
2019,05,04,10,46,12.60
2019,05,04,10,47,12.60
2019,05,04,10,48,12.60
2019,05,04,10,49,12.70
2019,05,04,10,50,12.80
2019,05,04,10,51,13.00
2019,05,04,10,52,13.20
2019,05,04,10,53,13.20
2019,05,04,10,54,13.10
2019,05,04,10,55,13.00
2019,05,04,10,56,12.90
2019,05,04,10,57,12.80
2019,05,04,10,58,12.80
2019,05,04,10,59,12.90
2019,05,04,11,00,13.00
2019,05,04,11,01,13.10
2019,05,04,11,02,13.00
2019,05,04,11,03,13.10
2019,05,04,11,04,13.20
2019,05,04,11,05,13.30
2019,05,04,11,06,13.50
2019,05,04,11,07,13.60
2019,05,04,11,08,13.70
2019,05,04,11,09,13.80
2019,05,04,11,10,13.80
2019,05,04,11,11,13.80
2019,05,04,11,12,13.70
2019,05,04,11,13,13.70
2019,05,04,11,14,13.70
2019,05,04,11,15,13.70
2019,05,04,11,16,13.80
2019,05,04,11,17,13.90
2019,05,04,11,18,14.00
2019,05,04,11,19,14.10
2019,05,04,11,20,14.10
2019,05,04,11,21,14.20
2019,05,04,11,22,14.30
2019,05,04,11,23,14.20
2019,05,04,11,24,14.20
2019,05,04,11,25,14.20
2019,05,04,11,26,14.20
2019,05,04,11,27,14.20
2019,05,04,11,28,14.20
2019,05,04,11,29,14.20
2019,05,04,11,30,14.20
2019,05,04,11,31,14.30
2019,05,04,11,32,14.20
2019,05,04,11,33,14.20
2019,05,04,11,34,14.30
2019,05,04,11,35,14.40
2019,05,04,11,36,14.40
2019,05,04,11,37,14.50
2019,05,04,11,38,14.50
2019,05,04,11,39,14.50
2019,05,04,11,40,14.50
2019,05,04,11,41,14.50
2019,05,04,11,42,14.50
2019,05,04,11,43,14.60
2019,05,04,11,44,14.60
2019,05,04,11,45,14.60
2019,05,04,11,46,14.70
2019,05,04,11,47,14.70
2019,05,04,11,48,14.80
2019,05,04,11,49,14.80
2019,05,04,11,50,14.80
2019,05,04,11,51,14.80
2019,05,04,11,52,14.80
2019,05,04,11,53,14.90
2019,05,04,11,54,14.90
2019,05,04,11,55,14.90
2019,05,04,11,56,14.80
2019,05,04,11,57,14.90
2019,05,04,11,58,15.10
2019,05,04,11,59,15.30
2019,05,04,12,00,15.40
2019,05,04,12,01,15.40
2019,05,04,12,02,15.30
2019,05,04,12,03,15.30
2019,05,04,12,04,15.30
2019,05,04,12,05,15.20
2019,05,04,12,06,15.10
2019,05,04,12,07,15.10
2019,05,04,12,08,15.20
2019,05,04,12,09,15.20
2019,05,04,12,10,15.30
2019,05,04,12,11,15.50
2019,05,04,12,12,15.60
2019,05,04,12,13,15.60
2019,05,04,12,14,15.50
2019,05,04,12,15,15.40
2019,05,04,12,16,15.30
2019,05,04,12,17,15.30
2019,05,04,12,18,15.30
2019,05,04,12,19,15.30
2019,05,04,12,20,15.40
2019,05,04,12,21,15.50
2019,05,04,12,22,15.50
2019,05,04,12,23,15.60
2019,05,04,12,24,15.60
2019,05,04,12,25,15.60
2019,05,04,12,26,15.50
2019,05,04,12,27,15.50
2019,05,04,12,28,15.50
2019,05,04,12,29,15.50
2019,05,04,12,30,15.40
2019,05,04,12,31,15.40
2019,05,04,12,32,15.30
2019,05,04,12,33,15.30
2019,05,04,12,34,15.30
2019,05,04,12,35,15.30
2019,05,04,12,36,15.30
2019,05,04,12,37,15.50
2019,05,04,12,38,15.60
2019,05,04,12,39,15.70
2019,05,04,12,40,15.70
2019,05,04,12,41,15.70
2019,05,04,12,42,15.80
2019,05,04,12,43,15.80
2019,05,04,12,44,15.80
2019,05,04,12,45,15.70
2019,05,04,12,46,15.50
2019,05,04,12,47,15.30
2019,05,04,12,48,15.10
2019,05,04,12,49,15.10
2019,05,04,12,50,15.00
2019,05,04,12,51,15.10
2019,05,04,12,52,15.20
2019,05,04,12,53,15.40
2019,05,04,12,54,15.60
2019,05,04,12,55,15.70
2019,05,04,12,56,15.80
2019,05,04,12,57,15.80
2019,05,04,12,58,15.80
2019,05,04,12,59,16.00
2019,05,04,13,00,16.10
2019,05,04,13,01,16.10
2019,05,04,13,02,16.10
2019,05,04,13,03,16.10
2019,05,04,13,04,16.00
2019,05,04,13,05,15.90
2019,05,04,13,06,15.70
2019,05,04,13,07,15.70
2019,05,04,13,08,15.70
2019,05,04,13,09,15.80
2019,05,04,13,10,15.90
2019,05,04,13,11,15.90
2019,05,04,13,12,15.90
2019,05,04,13,13,15.80
2019,05,04,13,14,15.80
2019,05,04,13,15,15.80
2019,05,04,13,16,15.90
2019,05,04,13,17,16.00
2019,05,04,13,18,16.10
2019,05,04,13,19,16.10
2019,05,04,13,20,16.10
2019,05,04,13,21,16.20
2019,05,04,13,22,16.20
2019,05,04,13,23,16.30
2019,05,04,13,24,16.30
2019,05,04,13,25,16.30
2019,05,04,13,26,16.40
2019,05,04,13,27,16.50
2019,05,04,13,28,16.50
2019,05,04,13,29,16.40
2019,05,04,13,30,16.40
2019,05,04,13,31,16.40
2019,05,04,13,32,16.40
2019,05,04,13,33,16.30
2019,05,04,13,34,16.30
2019,05,04,13,35,16.30
2019,05,04,13,36,16.30
2019,05,04,13,37,16.20
2019,05,04,13,38,16.10
2019,05,04,13,39,16.00
2019,05,04,13,40,15.80
2019,05,04,13,41,15.70
2019,05,04,13,42,15.60
2019,05,04,13,43,15.50
2019,05,04,13,44,15.60
2019,05,04,13,45,15.50
2019,05,04,13,46,15.50
2019,05,04,13,47,15.60
2019,05,04,13,48,15.60
2019,05,04,13,49,15.70
2019,05,04,13,50,15.70
2019,05,04,13,51,15.60
2019,05,04,13,52,15.70
2019,05,04,13,53,15.80
2019,05,04,13,54,15.80
2019,05,04,13,55,15.90
2019,05,04,13,56,16.10
2019,05,04,13,57,16.10
2019,05,04,13,58,16.20
2019,05,04,13,59,16.20
2019,05,04,14,00,16.20
2019,05,04,14,01,16.30
2019,05,04,14,02,16.30
2019,05,04,14,03,16.40
2019,05,04,14,04,16.40
2019,05,04,14,05,16.40
2019,05,04,14,06,16.30
2019,05,04,14,07,16.20
2019,05,04,14,08,16.20
2019,05,04,14,09,16.20
2019,05,04,14,10,16.10
2019,05,04,14,11,16.00
2019,05,04,14,12,15.80
2019,05,04,14,13,15.90
2019,05,04,14,14,15.90
2019,05,04,14,15,15.70
2019,05,04,14,16,15.60
2019,05,04,14,17,15.70
2019,05,04,14,18,15.70
2019,05,04,14,19,15.60
2019,05,04,14,20,15.50
2019,05,04,14,21,15.30
2019,05,04,14,22,15.20
2019,05,04,14,23,15.10
2019,05,04,14,24,15.00
2019,05,04,14,25,15.00
2019,05,04,14,26,15.00
2019,05,04,14,27,15.00
2019,05,04,14,28,14.80
2019,05,04,14,29,14.80
2019,05,04,14,30,14.90
2019,05,04,14,31,15.00
2019,05,04,14,32,15.10
2019,05,04,14,33,15.20
2019,05,04,14,34,15.20
2019,05,04,14,35,15.20
2019,05,04,14,36,15.10
2019,05,04,14,37,15.20
2019,05,04,14,38,15.20
2019,05,04,14,39,15.10
2019,05,04,14,40,15.10
2019,05,04,14,41,15.10
2019,05,04,14,42,15.10
2019,05,04,14,43,15.00
2019,05,04,14,44,14.90
2019,05,04,14,45,14.80
2019,05,04,14,46,14.70
2019,05,04,14,47,14.80
2019,05,04,14,48,14.70
2019,05,04,14,49,14.60
2019,05,04,14,50,14.60
2019,05,04,14,51,14.60
2019,05,04,14,52,14.60
2019,05,04,14,53,14.60
2019,05,04,14,54,14.50
2019,05,04,14,55,14.50
2019,05,04,14,56,14.50
2019,05,04,14,57,14.60
2019,05,04,14,58,14.70
2019,05,04,14,59,14.80
2019,05,04,15,00,14.80
2019,05,04,15,01,14.80
2019,05,04,15,02,14.80
2019,05,04,15,03,14.90
2019,05,04,15,04,15.00
2019,05,04,15,05,15.00
2019,05,04,15,06,14.90
2019,05,04,15,07,14.80
2019,05,04,15,08,14.90
2019,05,04,15,09,15.00
2019,05,04,15,10,15.10
2019,05,04,15,11,15.10
2019,05,04,15,12,15.10
2019,05,04,15,13,15.00
2019,05,04,15,14,15.00
2019,05,04,15,15,15.00
2019,05,04,15,16,14.90
2019,05,04,15,17,14.80
2019,05,04,15,18,14.70
2019,05,04,15,19,14.70
2019,05,04,15,20,14.70
2019,05,04,15,21,14.80
2019,05,04,15,22,14.80
2019,05,04,15,23,14.80
2019,05,04,15,24,14.80
2019,05,04,15,25,14.80
2019,05,04,15,26,14.90
2019,05,04,15,27,15.00
2019,05,04,15,28,14.90
2019,05,04,15,29,14.90
2019,05,04,15,30,14.80
2019,05,04,15,31,14.70
2019,05,04,15,32,14.60
2019,05,04,15,33,14.50
2019,05,04,15,34,14.50
2019,05,04,15,35,14.60
2019,05,04,15,36,14.60
2019,05,04,15,37,14.60
2019,05,04,15,38,14.60
2019,05,04,15,39,14.70
2019,05,04,15,40,14.80
2019,05,04,15,41,14.90
2019,05,04,15,42,15.00
2019,05,04,15,43,15.00
2019,05,04,15,44,15.00
2019,05,04,15,45,15.10
2019,05,04,15,46,15.20
2019,05,04,15,47,15.30
2019,05,04,15,48,15.30
2019,05,04,15,49,15.20
2019,05,04,15,50,15.20
2019,05,04,15,51,15.00
2019,05,04,15,52,14.90
2019,05,04,15,53,14.80
2019,05,04,15,54,14.80
2019,05,04,15,55,14.80
2019,05,04,15,56,14.70
2019,05,04,15,57,14.80
2019,05,04,15,58,14.80
2019,05,04,15,59,14.90
2019,05,04,16,00,15.00
2019,05,04,16,01,15.20
2019,05,04,16,02,15.20
2019,05,04,16,03,15.30
2019,05,04,16,04,15.30
2019,05,04,16,05,15.30
2019,05,04,16,06,15.30
2019,05,04,16,07,15.30
2019,05,04,16,08,15.30
2019,05,04,16,09,15.40
2019,05,04,16,10,15.50
2019,05,04,16,11,15.60
2019,05,04,16,12,15.60
2019,05,04,16,13,15.60
2019,05,04,16,14,15.60
2019,05,04,16,15,15.70
2019,05,04,16,16,15.70
2019,05,04,16,17,15.70
2019,05,04,16,18,15.70
2019,05,04,16,19,15.70
2019,05,04,16,20,15.80
2019,05,04,16,21,15.70
2019,05,04,16,22,15.80
2019,05,04,16,23,15.80
2019,05,04,16,24,15.80
2019,05,04,16,25,15.80
2019,05,04,16,26,15.70
2019,05,04,16,27,15.70
2019,05,04,16,28,15.70
2019,05,04,16,29,15.70
2019,05,04,16,30,15.70
2019,05,04,16,31,15.70
2019,05,04,16,32,15.70
2019,05,04,16,33,15.80
2019,05,04,16,34,15.80
2019,05,04,16,35,15.80
2019,05,04,16,36,15.90
2019,05,04,16,37,15.90
2019,05,04,16,38,15.90
2019,05,04,16,39,15.80
2019,05,04,16,40,15.70
2019,05,04,16,41,15.70
2019,05,04,16,42,15.70
2019,05,04,16,43,15.70
2019,05,04,16,44,15.70
2019,05,04,16,45,15.80
2019,05,04,16,46,15.80
2019,05,04,16,47,15.60
2019,05,04,16,48,15.60
2019,05,04,16,49,15.60
2019,05,04,16,50,15.60
2019,05,04,16,51,15.70
2019,05,04,16,52,15.70
2019,05,04,16,53,15.70
2019,05,04,16,54,15.70
2019,05,04,16,55,15.70
2019,05,04,16,56,15.80
2019,05,04,16,57,15.80
2019,05,04,16,58,15.80
2019,05,04,16,59,15.80
2019,05,04,17,00,15.60
2019,05,04,17,01,15.50
2019,05,04,17,02,15.40
2019,05,04,17,03,15.40
2019,05,04,17,04,15.30
2019,05,04,17,05,15.30
2019,05,04,17,06,15.40
2019,05,04,17,07,15.40
2019,05,04,17,08,15.50
2019,05,04,17,09,15.60
2019,05,04,17,10,15.70
2019,05,04,17,11,15.70
2019,05,04,17,12,15.70
2019,05,04,17,13,15.80
2019,05,04,17,14,15.70
2019,05,04,17,15,15.70
2019,05,04,17,16,15.70
2019,05,04,17,17,15.70
2019,05,04,17,18,15.70
2019,05,04,17,19,15.60
2019,05,04,17,20,15.60
2019,05,04,17,21,15.70
2019,05,04,17,22,15.70
2019,05,04,17,23,15.70
2019,05,04,17,24,15.60
2019,05,04,17,25,15.50
2019,05,04,17,26,15.30
2019,05,04,17,27,15.10
2019,05,04,17,28,15.00
2019,05,04,17,29,14.80
2019,05,04,17,30,14.60
2019,05,04,17,31,14.50
2019,05,04,17,32,14.40
2019,05,04,17,33,14.20
2019,05,04,17,34,14.00
2019,05,04,17,35,13.90